Terminal Aerodrome Forecast
Issued by NWS St Louis, MO

Home | Current Version | Previous Version | Graphics & Text | Print | Product List | Glossary On
Versions: 1 2 3 4 5 6 7 8 9 10 11 12 13 14 15 16 17 18 19 20 21 22 23 24 25 26 27 28 29 30
000
FTUS43 KLSX 272100 AAA
TAFSTL
TAF AMD
KSTL 272101Z 2721/2824 VRB04KT P6SM VCTS SCT040CB BKN250
      TEMPO 2721/2722 VRB15G30KT 5SM TSRA OVC035CB
     FM280100 04005KT P6SM BKN250
     FM280800 11005KT P6SM SCT100
      TEMPO 2808/2812 4SM BR
     FM281700 15006KT P6SM SCT040=

USA.gov is the U.S. government's official web portal to all federal, state and local government web resources and services.